User: anonymous   Login
Location: Vale
(35.4830°N, 81.3830°W)
Time: 11:56:21
(UTC-05:00)
Language:

Cosmos 2237 Rocket - Orbit

View from above orbital plane
View from above orbital plane
View from above satellite
View from above satellite

Ground track
Ground track

The orbit data is extracted from the following two-line orbital elements,

1 22566U 93016B   17018.47432394  .00000165  00000-0  10984-3 0  9990
2 22566  71.0071  21.1801 0010407 348.8936  11.1956 14.14939995230096
Epoch (UTC): 18 January 2017 11:23:01
Eccentricity: 0.0010407
inclination: 71.0071°
perigee height: 835 km
apogee height: 850 km
right ascension of ascending node: 21.1801°
argument of perigee: 348.8936°
revolutions per day: 14.14939995
mean anomaly at epoch: 11.1956°
orbit number at epoch: 23009

The dashed part of the orbit path shows where the satellite is in the earth's shadow,  

DLR